Wind_Speed
11 11 11 11 12 12 11 10 10 10 10 10 9 8 8 9 9 10 10 11 11 12 12 12 12 13 13 13 13 14 14 15 16 16 17 17 18 18 19 19 19 20 21
12 13 13 13 13 13 13 12 11 11 11 11 10 9 9 10 11 11 11 12 13 13 14 13 13 13 13 14 15 15 16 16 16 17 18 19 19 19 20 20 20 21 21
13 14 14 14 14 14 14 13 12 11 11 10 9 9 9 10 11 12 12 13 13 13 13 14 14 15 16 17 17 17 17 17 18 19 19 20 20 21 21 21 21 22 23
14 14 14 14 14 14 14 14 13 11 11 9 9 9 10 10 11 11 11 12 12 13 13 14 15 16 17 18 18 18 18 19 19 20 20 21 21 22 22 22 23 24 24
14 15 15 14 14 14 14 14 13 13 11 10 10 10 10 10 11 12 12 12 12 13 14 15 15 16 17 18 18 18 18 19 20 21 21 22 23 23 24 25 25 25 25
14 15 15 15 15 14 14 14 13 13 11 11 11 10 11 11 12 12 12 12 13 14 15 15 16 17 17 17 18 18 18 19 20 21 22 23 24 24 25 25 26 26 26
15 15 15 15 15 14 14 14 14 13 12 12 12 12 13 13 13 13 13 13 13 14 15 15 16 17 17 18 18 18 19 20 22 23 24 24 24 25 25 25 26 26 27
15 15 15 15 15 14 15 15 15 14 14 14 14 14 15 15 15 14 14 14 14 15 16 17 18 18 17 18 18 18 20 21 22 23 24 24 24 25 25 26 27 27 27
16 16 16 15 15 15 15 16 16 16 15 15 15 15 16 15 15 16 16 16 16 16 17 18 18 18 18 19 20 20 21 22 23 24 24 24 25 26 26 27 27 28 28
16 16 16 16 16 16 16 16 17 16 16 16 16 17 17 17 17 17 17 17 17 17 18 18 18 19 19 20 20 21 22 22 23 24 24 25 26 26 27 27 28 28 29
17 17 17 17 17 17 16 17 17 17 17 17 18 18 17 18 18 17 17 17 17 17 18 18 19 19 20 20 21 22 23 23 24 25 25 26 26 27 27 28 28 29 29
18 18 18 18 18 18 17 17 18 18 18 18 18 18 18 18 19 18 17 17 17 18 19 19 20 20 21 22 22 23 23 24 24 25 25 26 27 27 28 29 29 30 30
19 19 19 18 18 18 18 18 19 19 19 18 19 19 19 19 18 18 18 18 19 19 20 20 21 21 22 22 23 23 23 24 25 25 26 27 28 28 28 29 29 30 31
20 20 19 19 19 19 19 19 19 19 19 19 19 19 20 19 19 18 18 19 20 20 20 20 21 22 22 23 23 24 25 25 26 27 28 28 28 28 29 29 30 30 30
20 20 19 19 19 19 19 19 20 19 19 19 19 20 20 19 19 19 20 20 21 21 21 22 23 24 24 24 25 25 26 26 27 28 28 28 29 29 30 30 31 30 30
20 20 20 20 19 20 20 20 20 20 19 19 20 20 20 20 20 21 22 22 22 22 23 23 24 25 25 26 26 26 26 27 27 27 28 29 29 29 30 30 30 30 30
21 21 21 21 21 21 21 21 20 20 20 20 21 21 21 21 22 22 23 23 23 24 24 25 25 25 26 27 27 27 27 27 28 28 29 29 30 30 30 30 30 30 30
22 21 21 22 21 22 22 21 21 21 21 21 22 22 23 23 23 23 24 25 26 26 26 26 26 26 27 27 27 28 28 28 29 29 30 30 30 30 31 31 30 31 31
21 21 22 22 22 22 22 22 22 22 22 23 23 23 23 23 24 25 26 26 26 27 26 26 27 27 28 28 28 28 28 29 29 30 30 30 30 30 31 31 31 31 31
22 22 22 23 23 23 23 23 23 24 24 24 24 24 24 24 25 26 27 27 27 26 26 27 28 28 28 29 29 29 29 29 29 30 30 30 30 31 31 31 31 32 32
23 23 24 23 23 24 24 25 25 25 25 25 25 25 25 25 26 26 27 27 27 27 27 28 29 29 29 29 29 29 29 30 30 30 31 31 31 31 31 32 32 32 32
24 24 24 25 26 26 26 26 26 26 26 25 25 26 26 26 26 27 27 27 27 28 28 29 29 29 30 30 30 30 30 31 31 31 32 32 32 32 32 32 32 31 31
24 25 25 26 26 27 26 26 26 26 26 25 25 25 26 27 27 27 28 28 28 29 29 29 29 30 31 31 31 31 31 32 32 32 32 32 32 32 32 32 32 32 32
25 26 26 27 26 26 26 25 25 25 25 25 25 25 26 27 27 27 28 28 29 29 29 29 30 31 31 31 32 32 32 32 32 32 33 33 32 32 32 32 32 32 31
26 26 27 27 27 26 26 25 25 25 25 25 25 26 26 27 27 28 29 29 29 29 30 31 31 32 32 32 32 32 32 32 32 32 33 33 33 33 33 33 32 31 31
26 26 27 27 27 27 27 26 25 25 26 26 26 26 27 28 29 30 30 30 30 31 31 32 32 33 32 32 32 32 32 32 33 33 33 33 33 33 33 32 31 31 31
Wind_Direction
345 340 335 334 337 340 340 336 332 326 321 318 315 304 296 297 301 300 297 294 293 293 291 289 289 291 292 292 291 292 293 294 295 295 297 296 296 296 295 293 293 293 292
344 342 340 337 333 332 332 332 328 323 318 317 311 304 300 301 302 300 299 296 294 294 290 287 288 290 292 292 291 292 294 295 295 295 296 295 295 296 296 295 293 293 292
336 337 338 336 335 331 331 328 327 324 319 316 313 310 306 306 305 302 301 300 295 294 291 289 291 289 289 289 288 289 291 291 294 295 297 298 296 298 298 296 294 292 291
325 328 330 330 330 328 329 330 329 327 325 317 312 312 312 312 310 308 306 305 302 299 294 295 296 293 291 289 288 289 289 291 293 295 297 298 298 298 298 295 292 291 291
316 320 324 325 325 326 326 328 329 327 326 321 314 312 309 308 309 308 306 304 302 300 299 297 297 299 299 296 294 292 293 296 296 297 298 298 298 298 299 297 295 293 292
309 314 317 319 320 320 320 321 325 327 326 326 321 315 312 312 312 308 305 303 302 302 303 302 302 302 301 300 298 296 296 298 298 298 299 298 298 300 300 299 297 296 296
306 308 312 315 315 315 316 318 320 321 322 320 318 315 313 311 310 307 304 303 303 304 305 307 308 307 304 301 300 298 298 299 298 299 299 299 299 300 300 300 298 298 298
304 306 310 312 311 312 314 316 318 320 320 319 317 314 312 310 307 306 303 302 303 304 305 306 307 306 305 302 301 301 299 300 302 301 301 301 301 300 299 299 301 301 301
301 304 306 307 307 308 309 312 314 313 314 315 315 314 312 312 309 306 304 304 303 303 305 306 307 307 305 304 304 303 303 303 305 305 304 304 303 302 301 302 303 303 302
299 301 301 303 305 305 306 308 311 310 311 311 311 311 311 311 310 308 305 303 304 305 305 306 305 305 305 304 305 306 306 306 307 309 308 306 305 303 303 303 304 303 302
297 298 298 300 302 304 307 308 309 310 309 310 311 310 311 311 310 307 304 303 304 306 307 306 305 306 306 306 307 307 308 309 308 309 310 309 307 305 305 304 303 303 302
292 294 296 298 300 302 304 306 307 309 309 309 310 311 310 310 311 308 305 305 306 307 307 306 305 306 306 306 307 307 308 308 309 309 310 310 309 307 305 304 303 303 303
288 290 292 295 297 299 301 303 305 307 308 308 309 311 312 313 311 309 306 304 305 306 307 307 306 306 307 307 307 308 309 309 309 309 309 310 310 309 308 306 305 304 304
286 289 291 292 295 297 299 301 303 305 306 306 307 309 310 311 311 309 307 307 308 308 308 308 307 308 308 308 308 307 308 308 308 308 309 309 309 310 310 310 308 307 307
285 287 289 292 293 296 298 300 301 302 303 304 305 307 307 307 309 310 310 310 310 310 309 309 309 308 307 307 307 308 309 309 309 309 310 310 310 310 310 310 310 309 309
282 284 286 290 292 294 295 297 299 299 300 302 302 303 305 305 307 308 309 309 311 311 309 309 309 309 308 309 309 310 310 310 309 310 310 310 310 309 309 309 310 310 309
280 282 284 287 290 292 295 296 297 298 298 299 300 301 303 303 303 305 306 307 307 308 309 309 310 310 309 309 309 309 309 309 309 310 310 310 310 310 310 310 309 309 309
279 281 284 287 289 291 293 294 295 296 297 297 298 299 300 301 302 303 305 306 306 308 308 308 308 309 308 308 308 308 308 308 309 310 310 310 310 310 310 310 310 309 309
276 280 284 286 287 289 291 293 294 295 295 296 297 298 299 300 301 302 304 306 307 308 308 307 307 307 307 307 307 307 307 307 308 309 309 310 309 309 310 310 309 310 309
275 279 283 285 285 287 290 291 292 293 294 296 297 297 298 299 300 302 304 304 305 305 305 305 306 306 307 307 307 307 307 307 307 308 308 309 308 309 309 310 309 309 309
276 279 282 283 285 287 288 289 289 291 293 294 294 295 296 298 299 301 303 303 303 303 303 303 304 305 306 307 307 307 307 307 307 308 308 308 309 309 309 310 310 310 310
276 278 281 283 285 287 288 288 288 290 291 292 293 294 296 298 300 301 301 302 302 303 305 304 304 304 305 305 306 307 307 308 307 307 308 308 308 308 309 310 311 312 312
276 278 281 285 286 286 286 286 287 289 290 291 294 296 298 299 299 301 301 302 303 304 304 304 304 304 304 305 305 306 307 307 307 308 308 308 308 308 309 310 311 311 312
276 278 281 284 284 286 286 285 286 287 290 292 294 296 297 298 300 302 303 302 303 304 304 304 304 304 305 305 306 306 307 307 307 308 308 309 308 308 308 309 309 310 310
276 278 280 283 285 286 287 287 287 289 291 294 296 297 297 298 299 301 302 302 302 302 303 303 304 303 304 304 304 305 305 305 306 307 308 309 309 309 309 309 309 310 310
276 277 279 281 284 286 287 289 289 291 293 295 296 296 297 298 299 300 301 301 302 302 301 301 302 302 303 303 304 304 304 305 305 306 307 308 308 308 308 308 308 309 309
Height
5919 5917 5915 5913 5911 5908 5906 5904 5901 5899 5897 5896 5894 5893 5892 5891 5889 5888 5887 5885 5884 5883 5881 5880 5879 5877 5876 5874 5873 5872 5870 5869 5867 5865 5863 5861 5859 5857 5854 5852 5849 5847 5845
5918 5916 5914 5911 5909 5907 5904 5902 5899 5897 5895 5893 5892 5890 5889 5888 5887 5885 5884 5882 5880 5879 5877 5876 5874 5873 5872 5870 5869 5868 5866 5864 5863 5861 5858 5856 5854 5852 5849 5846 5844 5841 5839
5916 5914 5912 5910 5907 5905 5902 5900 5897 5894 5892 5891 5889 5888 5886 5885 5884 5882 5880 5878 5877 5875 5873 5872 5870 5869 5868 5866 5865 5863 5861 5859 5858 5856 5853 5851 5849 5846 5843 5841 5838 5835 5833
5914 5912 5910 5907 5905 5903 5900 5898 5895 5892 5890 5888 5887 5885 5884 5882 5881 5879 5877 5875 5873 5871 5870 5868 5866 5864 5863 5861 5859 5857 5856 5854 5852 5850 5848 5846 5843 5840 5838 5835 5832 5829 5827
5911 5909 5907 5905 5902 5900 5897 5895 5892 5890 5888 5886 5884 5883 5881 5879 5877 5876 5874 5872 5870 5868 5866 5864 5862 5860 5858 5856 5854 5852 5850 5849 5847 5845 5842 5840 5837 5834 5831 5828 5825 5823 5820
5908 5906 5904 5902 5899 5897 5895 5892 5890 5888 5886 5884 5882 5880 5878 5876 5874 5872 5870 5868 5866 5865 5862 5860 5858 5855 5853 5851 5849 5847 5846 5844 5842 5839 5837 5834 5831 5828 5825 5822 5819 5817 5814
5904 5903 5901 5899 5896 5894 5892 5889 5887 5885 5883 5881 5879 5877 5875 5873 5871 5869 5867 5865 5863 5860 5858 5856 5853 5851 5849 5847 5845 5843 5841 5838 5836 5834 5831 5828 5825 5822 5819 5816 5813 5810 5807
5901 5899 5897 5895 5893 5891 5889 5887 5884 5882 5880 5878 5876 5874 5872 5869 5867 5865 5863 5861 5858 5856 5854 5852 5849 5847 5844 5842 5840 5838 5836 5833 5831 5828 5825 5822 5819 5816 5813 5810 5806 5803 5800
5897 5895 5894 5892 5890 5888 5886 5883 5881 5879 5877 5875 5872 5870 5868 5865 5863 5861 5859 5856 5854 5852 5850 5847 5845 5843 5840 5838 5835 5833 5831 5828 5825 5821 5818 5815 5812 5809 5806 5803 5799 5796 5792
5893 5891 5890 5888 5886 5884 5882 5880 5878 5875 5873 5871 5869 5866 5863 5861 5858 5856 5854 5852 5850 5848 5845 5843 5840 5838 5835 5833 5830 5828 5825 5822 5819 5816 5812 5809 5806 5802 5799 5796 5792 5788 5785
5888 5887 5885 5883 5881 5879 5878 5876 5874 5872 5869 5867 5864 5862 5859 5857 5854 5851 5849 5847 5845 5843 5840 5838 5835 5833 5830 5828 5825 5822 5819 5816 5813 5810 5806 5803 5799 5795 5792 5788 5784 5781 5777
5883 5882 5880 5879 5877 5875 5873 5871 5869 5867 5865 5863 5860 5858 5855 5852 5849 5846 5844 5842 5840 5838 5836 5833 5831 5828 5825 5823 5820 5817 5814 5810 5807 5804 5800 5796 5792 5788 5784 5781 5776 5773 5769
5877 5876 5875 5874 5872 5870 5869 5867 5865 5863 5860 5858 5855 5853 5850 5847 5845 5842 5840 5838 5836 5833 5831 5828 5826 5823 5820 5817 5814 5811 5808 5805 5801 5797 5794 5790 5786 5781 5777 5773 5769 5765 5761
5872 5871 5870 5869 5867 5865 5864 5862 5860 5858 5856 5853 5851 5848 5846 5843 5841 5839 5836 5833 5831 5828 5826 5823 5820 5817 5814 5811 5808 5805 5802 5798 5795 5791 5787 5783 5779 5775 5770 5766 5762 5758 5753
5866 5865 5864 5863 5862 5860 5859 5857 5855 5853 5851 5848 5846 5844 5841 5839 5837 5834 5831 5829 5826 5824 5821 5818 5815 5812 5809 5806 5802 5799 5795 5792 5788 5784 5780 5776 5772 5768 5763 5759 5755 5750 5746
5861 5860 5859 5858 5857 5855 5853 5852 5849 5847 5845 5843 5841 5839 5836 5834 5832 5829 5827 5824 5821 5818 5815 5813 5810 5806 5803 5799 5796 5792 5789 5785 5781 5777 5773 5769 5765 5761 5756 5752 5748 5743 5739
5855 5854 5854 5853 5851 5850 5848 5846 5844 5842 5840 5838 5836 5833 5831 5829 5826 5824 5821 5819 5816 5813 5810 5806 5803 5800 5797 5793 5789 5786 5782 5778 5774 5770 5766 5762 5758 5753 5749 5745 5740 5736 5732
5849 5848 5847 5846 5845 5844 5842 5840 5838 5837 5835 5832 5830 5828 5825 5823 5820 5818 5815 5812 5809 5806 5803 5800 5796 5793 5790 5786 5783 5779 5775 5771 5767 5763 5759 5755 5750 5746 5742 5738 5733 5729 5725
5842 5842 5841 5840 5839 5837 5836 5834 5832 5830 5828 5826 5824 5822 5819 5817 5814 5811 5808 5806 5802 5799 5796 5793 5790 5786 5783 5779 5776 5772 5768 5764 5760 5756 5751 5747 5743 5739 5734 5730 5726 5721 5717
5836 5835 5835 5833 5832 5831 5829 5828 5826 5824 5821 5819 5817 5815 5812 5810 5808 5805 5802 5799 5796 5793 5789 5786 5783 5779 5776 5772 5768 5764 5760 5756 5752 5748 5744 5740 5735 5731 5727 5722 5718 5713 5709
5829 5829 5828 5827 5826 5824 5823 5821 5819 5817 5815 5812 5810 5808 5806 5803 5801 5798 5795 5792 5789 5786 5782 5779 5775 5772 5768 5764 5760 5757 5753 5749 5744 5740 5736 5732 5728 5723 5719 5714 5710 5705 5701
5822 5821 5821 5820 5818 5817 5815 5813 5812 5810 5808 5805 5803 5801 5798 5796 5793 5790 5787 5784 5781 5778 5775 5771 5768 5764 5760 5757 5753 5749 5745 5741 5737 5733 5728 5724 5720 5715 5711 5706 5702 5698 5693
5815 5814 5813 5812 5810 5809 5807 5805 5804 5802 5800 5798 5796 5793 5791 5788 5786 5783 5780 5777 5773 5770 5767 5763 5760 5756 5752 5748 5744 5741 5737 5733 5729 5724 5720 5716 5712 5707 5703 5699 5694 5690 5686
5807 5806 5805 5804 5802 5801 5799 5798 5796 5795 5793 5791 5788 5786 5783 5781 5778 5775 5772 5769 5766 5762 5759 5755 5752 5748 5744 5740 5736 5732 5728 5724 5720 5716 5712 5708 5703 5699 5695 5691 5686 5682 5678
5799 5798 5797 5796 5795 5793 5792 5790 5789 5787 5785 5783 5781 5778 5776 5773 5770 5767 5764 5761 5758 5754 5751 5747 5743 5739 5735 5731 5727 5724 5720 5716 5712 5708 5703 5699 5695 5691 5687 5682 5678 5674 5670
5791 5790 5789 5788 5787 5786 5784 5783 5781 5779 5777 5775 5773 5770 5768 5765 5762 5759 5756 5753 5749 5746 5742 5738 5735 5731 5727 5722 5718 5714 5711 5707 5703 5699 5695 5691 5686 5682 5678 5674 5670 5666 5662